EW9479 Weather Reports


Display with metric or nautical units.
time (UTC)temp
F
wind
direction
speed
MPH
gust
MPH
rain 1hr
in
rain 24hr
in
rain mn
in
humidity
%
barometer
mb
20260903161546 95 24 1.0 4.0 0.00 0.00 0.00 59 1018.2
20260903160052 94 23 2.0 5.0 0.00 0.00 0.00 60 1018.2
20260903154550 93 24 2.0 6.0 0.00 0.00 0.00 61 1018.3
20260903153101 93 53 1.0 4.0 0.00 0.00 0.00 61 1018.3
20260903151544 92 321 1.0 4.0 0.00 0.00 0.00 63 1018.3
20260903150104 91 309 2.0 5.0 0.00 0.00 0.00 63 1018.3
20260903144546 91 291 2.0 4.0 0.00 0.00 0.00 62 1018.4
20260903143056 91 0 0.0 2.0 0.00 0.00 0.00 66 1018.4
20260903141555 91 110 0.0 1.0 0.00 0.00 0.00 65 1018.4
20260903140052 89 128 0.0 1.0 0.00 0.00 0.00 68 1018.3
20260903134549 88 0 0.0 1.0 0.00 0.00 0.00 71 1018.5
20260903133045 86 0 0.0 0.0 0.00 0.00 0.00 76 1018.5
20260903131553 81 0 0.0 1.0 0.00 0.00 0.00 82 1018.5
20260903130044 77 0 0.0 0.0 0.00 0.00 0.00 87 1018.5
20260903124549 75 0 0.0 1.0 0.00 0.00 0.00 89 1018.6
20260903123043 74 0 0.0 1.0 0.00 0.00 0.00 90 1018.6
20260903121543 73 0 0.0 1.0 0.00 0.00 0.00 91 1018.4
20260903120051 72 0 0.0 0.0 0.00 0.00 0.00 91 1018.1
20260903114545 72 0 0.0 0.0 0.00 0.00 0.00 91 1018.1
20260903113045 72 0 0.0 0.0 0.00 0.00 0.00 91 1017.8
20260903111551 72 0 0.0 0.0 0.00 0.00 0.00 91 1017.7
20260903110045 72 0 0.0 0.0 0.00 0.00 0.00 90 1017.4
20260903104607 73 0 0.0 0.0 0.00 0.00 0.00 90 1017.4
20260903103057 72 0 0.0 0.0 0.00 0.00 0.00 90 1017.3
20260903101553 73 0 0.0 0.0 0.00 0.00 0.00 90 1017.4
20260903100045 73 0 0.0 0.0 0.00 0.00 0.00 90 1017.4
20260903094547 73 0 0.0 0.0 0.00 0.00 0.00 90 1017.3
20260903093051 73 0 0.0 0.0 0.00 0.00 0.00 89 1017.4
20260903091552 73 0 0.0 0.0 0.00 0.00 0.00 89 1017.4
20260903090046 73 0 0.0 0.0 0.00 0.00 0.00 89 1017.6
20260903084547 73 0 0.0 0.0 0.00 0.00 0.00 88 1017.5
20260903083047 74 0 0.0 0.0 0.00 0.00 0.00 88 1017.4
20260903081603 74 0 0.0 0.0 0.00 0.00 0.00 88 1017.2
20260903080044 74 0 0.0 0.0 0.00 0.00 0.00 87 1017.3
20260903074554 75 0 0.0 0.0 0.00 0.00 0.00 86 1017.3
20260903073047 75 0 0.0 0.0 0.00 0.00 0.00 86 1017.3
20260903071551 75 0 0.0 0.0 0.00 0.00 0.00 86 1017.3
20260903070045 75 0 0.0 0.0 0.00 0.00 0.00 85 1017.4
20260903064551 75 0 0.0 0.0 0.00 0.00 0.00 85 1017.4
20260903063049 76 0 0.0 0.0 0.00 0.00 0.00 85 1017.5
20260903061544 75 0 0.0 0.0 0.00 0.00 0.00 85 1017.5
20260903060049 76 0 0.0 0.0 0.00 0.00 0.00 85 1017.7
20260903054548 76 0 0.0 0.0 0.00 0.00 0.00 85 1017.5
20260903053045 76 0 0.0 0.0 0.00 0.00 0.00 84 1017.5
20260903051548 76 0 0.0 0.0 0.00 0.00 0.00 84 1017.6
20260903050048 76 0 0.0 0.0 0.00 0.00 0.00 84 1017.4
20260903044547 76 0 0.0 0.0 0.00 0.00 0.00 84 1017.4
20260903043043 76 0 0.0 0.0 0.00 0.00 0.00 83 1017.5
20260903041549 76 0 0.0 0.0 0.00 0.00 0.00 82 1017.5
20260903040046 77 0 0.0 0.0 0.00 0.00 0.00 81 1017.3
20260903034552 78 0 0.0 0.0 0.00 0.00 0.00 79 1017.4
20260903033105 79 0 0.0 0.0 0.00 0.00 0.00 79 1017.6
20260903031549 79 0 0.0 0.0 0.00 0.00 0.00 78 1017.5
20260903030049 80 0 0.0 0.0 0.00 0.00 0.00 76 1017.4
20260903024603 81 0 0.0 0.0 0.00 0.00 0.00 76 1017.4
20260903023051 81 0 0.0 0.0 0.00 0.00 0.00 74 1017.4
20260903021548 82 0 0.0 0.0 0.00 0.00 0.00 74 1017.3
20260903020103 83 0 0.0 0.0 0.00 0.00 0.00 73 1017.2
20260903014544 83 0 0.0 0.0 0.00 0.00 0.00 71 1017.0
20260903013050 84 0 0.0 1.0 0.00 0.00 0.00 70 1016.8
20260903011546 85 117 0.0 1.0 0.00 0.00 0.00 68 1016.6
20260903010044 86 0 0.0 1.0 0.00 0.00 0.00 67 1016.5
20260903004551 87 0 0.0 0.0 0.00 0.00 0.00 65 1016.4
20260903003046 88 0 0.0 0.0 0.00 0.00 0.00 63 1016.5
20260903001602 90 0 0.0 0.0 0.00 0.00 0.00 59 1016.3
20260903000059 93 0 0.0 1.0 0.00 0.00 0.00 56 1016.4
20260902234550 95 0 0.0 1.0 0.00 0.00 0.00 52 1016.4
20260902233049 95 91 0.0 2.0 0.00 0.00 0.00 51 1016.5
20260902231552 96 101 0.0 4.0 0.00 0.00 0.00 48 1016.4
20260902230043 96 101 0.0 3.0 0.00 0.00 0.00 48 1016.6
20260902224544 97 77 0.0 2.0 0.00 0.00 0.00 46 1016.5
20260902223048 98 127 0.0 3.0 0.00 0.00 0.00 46 1016.6
20260902221607 99 93 0.0 5.0 0.00 0.00 0.00 44 1016.8
20260902220046 100 112 1.0 5.0 0.00 0.00 0.00 45 1016.8
20260902214550 99 267 2.0 6.0 0.00 0.00 0.00 46 1016.8
20260902213053 99 130 1.0 7.0 0.00 0.00 0.00 45 1016.8
20260902211553 99 53 0.0 6.0 0.00 0.00 0.00 46 1016.9
20260902210044 99 315 2.0 6.0 0.00 0.00 0.00 45 1016.9
20260902204605 99 240 4.0 7.0 0.00 0.00 0.00 43 1017.0
20260902203049 99 47 1.0 5.0 0.00 0.00 0.00 45 1017.3
20260902201546 99 203 1.0 7.0 0.00 0.00 0.00 44 1017.4
20260902200051 98 185 3.0 7.0 0.00 0.00 0.00 44 1017.6
20260902194556 98 120 2.0 6.0 0.00 0.00 0.00 47 1017.9
20260902193059 98 219 1.0 8.0 0.00 0.00 0.00 46 1018.1
20260902191553 98 139 2.0 6.0 0.00 0.00 0.00 47 1018.2
20260902190046 96 293 1.0 7.0 0.00 0.00 0.00 47 1018.3
20260902184550 97 124 1.0 7.0 0.00 0.00 0.00 51 1018.5
20260902183112 96 204 2.0 7.0 0.00 0.00 0.00 50 1018.6
20260902181547 96 107 0.0 4.0 0.00 0.00 0.00 52 1018.8
20260902180047 94 224 0.0 2.0 0.00 0.00 0.00 53 1019.0
20260902174551 94 0 0.0 3.0 0.00 0.00 0.00 57 1019.3
20260902173056 95 13 1.0 3.0 0.00 0.00 0.00 57 1019.5
20260902171556 93 0 0.0 1.0 0.00 0.00 0.00 58 1019.6
20260902170046 94 97 0.0 1.0 0.00 0.00 0.00 57 1019.9
20260902164559 95 105 0.0 4.0 0.00 0.00 0.00 57 1020.1
20260902163046 94 210 3.0 7.0 0.00 0.00 0.00 58 1020.0